Regional Weather Roundup
Issued by NWS

Home | Current Version | Previous Version | Text Only | Print | Product List | Glossary Off
Versions: 1 2 3 4 5 6 7 8 9 10 11 12 13 14 15 16 17 18 19 20 21 22 23 24 25 26 27 28 29 30 31 32 33 34 35 36 37 38 39 40 41 42 43 44 45 46 47 48 49 50

000
ASUS45 KBOU 041107
RWRCO

WEATHER ROUNDUP FOR COLORADO
NATIONAL WEATHER SERVICE DENVER/BOULDER CO
500 AM MDT TUE AUG 04 2015

NOTE: "FAIR" INDICATES FEW OR NO CLOUDS BELOW 12000 FEET WITH NO
SIGNIFICANT WEATHER AND/OR OBSTRUCTIONS TO VISIBILITY.

COZ001>005-013-030-031-041200-
...NORTHWEST COLORADO...

CITY           SKY/WX    TMP DP  RH WIND       PRES   REMARKS
CRAIG          PTCLDY    47  47 100 CALM      30.20R FOG
HAYDEN         PTCLDY    52  46  82 SE6       30.21R
MEEKER         PTCLDY    47  44  90 NE5       30.21S
MOUNT WERNER   NOT AVBL
STEAMBOAT SPGS   N/A     49  49  99 CALM      30.22S
WALDEN         CLOUDY    52  43  71 S10       30.26S
$$

COZ006>008-011-041200-
...WEST CENTRAL VALLEYS...

CITY           SKY/WX    TMP DP  RH WIND       PRES   REMARKS
GRAND JUNCTION CLEAR     60  49  66 NE7       30.12S
MONTROSE       PTCLDY    61  47  59 CALM      30.19S
EAGLE          PTCLDY    52  46  82 CALM      30.24R
RIFLE          CLEAR     58  52  80 CALM      30.17R
DELTA          RAIN      60  52  75 E7        30.17S
NUCLA          PTCLDY    55  48  76 SE6       30.25R
$$

COZ017>023-064>068-041200-
...SOUTHWEST COLORADO...

CITY           SKY/WX    TMP DP  RH WIND       PRES   REMARKS
DURANGO        MOCLDY    53  46  77 N10       30.25F
CORTEZ         CLEAR     53  51  93 S5        30.19S
PAGOSA SPRINGS MOCLDY    49  46  87 CALM      30.33R
TELLURIDE      PTCLDY    49  44  81 SE7       30.44F
WOLF CREEK PAS NOT AVBL
$$

COZ009-010-012-014-032>034-037-058>063-041200-
...CENTRAL COLORADO...

CITY           SKY/WX    TMP DP  RH WIND       PRES   REMARKS
ASPEN          PTCLDY    50  43  77 S8        30.28F
BUENA VISTA    PTCLDY    50  42  73 CALM      30.30F
COPPER MTN     MOCLDY    46  30  53 W23G31    30.51F
BERTHOUD PASS  FAIR      37  28  70 W31G43    30.49F
COTTONWOOD PAS PTCLDY    48  39  71 NW7G20    30.40F
GUNNISON       CLEAR     48  46  93 CALM      30.36F
KREMMLING      PTCLDY    43  37  81 CALM      30.27S
LEADVILLE      PTCLDY    43  37  79 E7        30.39F
MONARCH PASS   PTCLDY    39  34  81 W26       30.64S
SALIDA         PTCLDY    52  47  84 CALM      30.35F
SUNLIGHT       PTCLDY    45  41  87 CALM      30.49S
WILKERSON PASS NOT AVBL
$$

COZ069>075-041200-
...SAN LUIS VALLEY/SANGRE DE CRISTO MOUNTAINS...

CITY           SKY/WX    TMP DP  RH WIND       PRES   REMARKS
ALAMOSA        CLEAR     46  44  93 N5        30.31R
LA VETA PASS   CLEAR     46  41  81 MISG      30.45F
SAGUACHE       PTCLDY    50  45  81 CALM      30.33F
$$

COZ035-036-038>040-041200-
...NORTHERN COLORADO FRONT RANGE...

CITY           SKY/WX    TMP DP  RH WIND       PRES   REMARKS
DENVER INTL AP PTCLDY    61  50  67 S6        30.03F
DMNS CITY PARK   N/A     60  49  66 SE8       30.04F
AURORA         PTCLDY    59  48  68 SW8       30.08S
FRONT RANGE AP NOT AVBL
ERIE MUNI ARPT PTCLDY    57  51  81 CALM      30.02S
BOULDER MUN AP PTCLDY    59  50  72 CALM      30.03F
CENTENNIAL     PTCLDY    59  47  64 S6        30.07F
BROOMFIELD     PTCLDY    70  39  32 W3        30.06F
FORT COLLINS   CLEAR     57  52  82 NW5       30.04S
LONGMONT       CLEAR     59  52  78 CALM      30.03F
$$

COZ041-046-047-076>085-087-088-041200-
...PIKES PEAK/PALMER DIVIDE AND SOUTHERN FOOTHILLS...

CITY           SKY/WX    TMP DP  RH WIND       PRES   REMARKS
COLO. SPRINGS  PTCLDY    55  48  77 N9        30.13F
A. F. ACADEMY  PTCLDY    50  48  90 W6G21     30.14F
ELLICOTT       PTCLDY   N/A N/A N/A CALM      30.11F
FALCON         PTCLDY    58  42  54 NW8       30.17F
FORT CARSON    PTCLDY    55  49  80 N6        30.09F
LIMON          CLEAR     49  48  97 N6        30.05S
MONUMENT HILL  PTCLDY    55  41  58 W9        30.17F
TRINIDAD       CLEAR     58  55  90 SW9       30.14F
$$

COZ042>045-048>051-090-091-041200-
...NORTHEAST COLORADO...

CITY           SKY/WX    TMP DP  RH WIND       PRES   REMARKS
GREELEY ARPT   CLEAR     55  50  82 CALM      30.02S
AKRON          CLEAR     62  54  74 S7        29.99S
BURLINGTON     CLEAR     64  60  87 S7        29.99S
WRAY           MOCLDY    57  53  85 W3        29.95F
STERLING       CLEAR     54  52  94 SW3       29.95S
HOLYOKE        MOCLDY    59  52  77 CALM      29.95F
FORT MORGAN    CLEAR     53  48  83 W3        29.99F
$$

COZ086-089-092>099-041200-
...SOUTHEAST COLORADO...

CITY           SKY/WX    TMP DP  RH WIND       PRES   REMARKS
PUEBLO         CLEAR     60  56  86 W7        30.04F
LA JUNTA       CLEAR     60  57  89 W5        30.02S
LAMAR          CLEAR     60  58  92 SW6       29.99R
SPRINGFIELD      N/A     58  56  93 VRB3      30.03R
$$


USA.gov is the U.S. government's official web portal to all federal, state and local government web resources and services.